Waarnemingen

Advertentie
Mijn weer
Nice, Frankrijk (7690): temperatuur & dauwpunt: 07.12.2017 00:00:00 - 13.12.2017 00:00:00 (CET)Nice, Frankrijk (7690): temperatuur 5cm: 07.12.2017 00:00:00 - 13.12.2017 00:00:00 (CET)Nice, Frankrijk (7690): temperatuur -20cm & temperatuur -100cm: 07.12.2017 00:00:00 - 13.12.2017 00:00:00 (CET)Nice, Frankrijk (7690): windsnelheid & windstoten: 07.12.2017 00:00:00 - 13.12.2017 00:00:00 (CET)Nice, Frankrijk (7690): windrichting: 07.12.2017 00:00:00 - 13.12.2017 00:00:00 (CET)Nice, Frankrijk (7690): luchtdruk: 07.12.2017 00:00:00 - 13.12.2017 00:00:00 (CET)Nice, Frankrijk (7690): zicht: 07.12.2017 00:00:00 - 13.12.2017 00:00:00 (CET)Nice, Frankrijk (7690): Zonneschijnduur: 07.12.2017 00:00:00 - 13.12.2017 00:00:00 (CET)Nice, Frankrijk (7690): neerslag: 07.12.2017 00:00:00 - 13.12.2017 00:00:00 (CET)
Datum & Tijd tt [°C] td [°C] tt 5cm [°C] tt -20cm [°C] tt -100cm [°C] ff [km/u] ff [kn] fx [km/u] fx [kn] dd ppp [hPa] vv [km] sd [min] rr [mm]
13.12.2017 00:00:00 7,4 2,9 6,1 11,9 13,8 10 5 21 11 NNW 1014,3 20 0 0,0
12.12.2017 23:00:00 8,0 2,0 4,9 11,9 14,0 19 10 26 14 NW 1014,1 20 0 0,0
12.12.2017 22:00:00 6,9 4,6 5,7 11,9 14,0 14 8 19 11 WNW 1014,0 20 0 0,0
12.12.2017 21:00:00 7,5 4,1 5,9 11,9 13,9 9 5 17 9 NW 1013,4 20 0 0,0
12.12.2017 20:00:00 8,6 5,2 7,1 11,9 13,9 13 7 19 10 NW 1013,4 10 0 0,0
12.12.2017 19:00:00 8,9 5,5 8,0 11,8 13,9 12 6 19 10 NW 1012,7 30 0 0,0
12.12.2017 18:00:00 10,7 5,0 9,8 11,9 13,9 15 8 25 14 W 1012,1 30 0 0,0
12.12.2017 17:00:00 11,3 5,4 10,3 11,9 13,9 18 10 30 16 WZW 1011,5 50 5 0,0
12.12.2017 16:00:00 12,3 6,1 12,1 11,8 13,9 22 12 29 16 WZW 1011,0 38 24 0,0
12.12.2017 15:00:00 12,0 5,6 12,2 11,8 14,0 19 10 28 15 WZW 1010,6 50 7 0,0
12.12.2017 14:00:00 12,2 6,0 12,6 11,8 14,1 22 12 37 20 ZW 1009,9 50 0 0,0
12.12.2017 13:00:00 11,8 4,7 12,2 11,8 14,1 4 2 19 10 NW 1009,9 50 26 0,0
12.12.2017 12:00:00 10,6 4,3 11,3 11,8 14,0 10 5 16 9 WZW 1010,1 30 46 0,0
12.12.2017 11:00:00 9,0 4,6 8,9 11,8 14,1 8 4 15 8 W 1010,2 30 38 0,0
12.12.2017 10:00:00 8,1 4,9 7,6 11,7 14,1 10 5 21 12 WNW 1009,9 50 0 0,0
12.12.2017 09:00:00 7,4 4,9 6,0 11,7 14,1 14 8 21 12 NW 1008,9 50 0 0,0
12.12.2017 08:00:00 6,5 4,5 5,7 11,7 14,0 16 9 21 11 NW 1008,0 50 0 0,0
12.12.2017 07:00:00 6,3 4,9 5,2 11,7 14,1 13 7 19 10 NW 1006,9 30 0 0,0
12.12.2017 06:00:00 6,4 4,9 5,3 11,7 14,2 13 7 15 8 NW 1005,6 30 0 0,0
12.12.2017 05:00:00 6,6 4,6 5,4 11,7 14,3 7 4 19 10 NNW 1004,6 30 0 0,0
12.12.2017 04:00:00 9,7 4,9 8,8 11,7 14,2 17 9 36 19 W 1003,9 30 0 0,0
12.12.2017 03:00:00 10,3 5,1 9,0 11,7 14,3 9 5 30 16 WNW 1003,0 30 0 0,0
12.12.2017 02:00:00 9,6 5,6 8,8 11,6 14,4 20 11 30 16 W 1001,3 30 0 0,0
12.12.2017 01:00:00 9,9 5,9 9,2 11,6 14,4 19 10 29 16 WZW 1000,0 30 0 0,0
12.12.2017 00:00:00 10,6 6,9 10,1 11,6 14,4 19 11 37 20 W 998,3 30 0 0,0
11.12.2017 23:00:00 11,1 7,6 10,8 11,6 14,4 34 18 44 24 WZW 996,8 13 0 0,0
11.12.2017 22:00:00 13,2 9,1 12,8 11,6 14,5 33 18 46 25 ZW 995,5 13 0 0,0
11.12.2017 21:00:00 14,4 12,6 13,3 11,6 14,6 29 16 45 25 ZW 994,1 8 0 0,0
11.12.2017 20:00:00 14,1 12,3 13,3 11,5 14,6 34 18 71 39 ZW 992,8 7 0 0,6
11.12.2017 19:00:00 14,9 13,3 14,0 11,5 14,3 54 29 71 39 ZZW 992,0 1,5 0 4,2
11.12.2017 18:00:00 15,0 13,4 14,1 11,5 14,4 47 25 73 39 ZZW 992,1 0,7 0 3,3
11.12.2017 17:00:00 15,5 13,7 14,4 11,5 14,3 53 29 82 45 Z 991,6 1,0 0 0,2
11.12.2017 16:00:00 15,5 14,0 14,5 11,5 14,4 50 27 82 44 ZZW 991,4 3,0 0 1,2
11.12.2017 15:00:00 15,6 13,6 14,4 11,5 14,5 58 31 86 46 ZZW 991,3 4,0 0 0,8
11.12.2017 14:00:00 15,3 13,5 14,2 11,5 14,3 55 30 73 39 Z 991,4 3,0 0 0,8
11.12.2017 13:00:00 15,0 13,4 13,9 11,6 14,4 51 28 72 39 Z 992,4 3,0 0 1,2
11.12.2017 12:00:00 15,0 13,5 14,2 11,6 14,6 49 26 71 38 Z 993,0 1,5 0 1,8
11.12.2017 11:00:00 15,0 13,7 14,2 11,6 14,3 49 26 67 36 Z 993,7 1,5 0 2,5
11.12.2017 10:00:00 15,2 13,6 13,9 11,6 14,2 52 28 71 39 Z 994,2 3,0 0 2,6
11.12.2017 09:00:00 15,0 13,5 14,1 11,7 14,4 52 28 68 37 Z 994,1 2,0 0 1,6
11.12.2017 08:00:00 15,2 13,6 14,1 11,7 14,2 43 23 61 33 Z 994,4 2,8 0 0,8
11.12.2017 07:00:00 15,0 13,5 13,9 11,7 14,5 46 25 61 33 Z 994,5 8 0 0,6
11.12.2017 06:00:00 15,0 13,4 7,5 11,7 14,4 34 18 48 26 Z 995,6 2,8 0 0,0
11.12.2017 05:00:00 8,1 7,2 7,1 11,8 14,5 18 10 35 19 NNW 996,5 10 0 0,8
11.12.2017 04:00:00 7,4 6,5 6,9 11,8 14,4 25 14 31 17 NNW 997,5 5 0 2,9
11.12.2017 03:00:00 7,2 6,1 6,7 11,8 14,5 22 12 28 15 NNW 998,8 8 0 1,2
11.12.2017 02:00:00 6,8 5,9 6,3 11,8 14,5 16 9 21 11 NNW 999,6 8 0 2,6
11.12.2017 01:00:00 6,5 5,6 6,1 11,8 14,5 15 8 23 12 NNW 1000,4 8 0 4,0
11.12.2017 00:00:00 6,4 5,5 6,0 11,8 14,6 16 9 24 13 NNW 1000,9 7 0 2,8
10.12.2017 23:00:00 6,2 5,3 5,8 11,8 14,4 14 8 24 13 NNW 1001,6 7 0 4,7
10.12.2017 22:00:00 6,2 5,2 5,6 11,9 14,6 18 10 25 14 NNW 1002,2 7 0 4,2
10.12.2017 21:00:00 5,9 4,5 5,4 11,9 14,5 14 8 26 14 NNW 1002,7 10 0 2,6
10.12.2017 20:00:00 5,7 4,5 5,2 11,9 14,7 20 11 30 16 NNW 1003,0 5 0 3,1
10.12.2017 19:00:00 5,5 4,3 4,8 11,9 14,7 16 9 40 21 NNW 1003,4 4,5 0 3,0
10.12.2017 18:00:00 5,1 3,8 4,5 11,9 14,6 16 9 39 21 NNW 1003,9 7 0 1,6
10.12.2017 17:00:00 4,9 3,4 4,3 11,9 14,4 23 13 32 17 NNW 1004,8 4,0 0 2,2
10.12.2017 16:00:00 4,8 3,0 4,1 11,9 14,5 21 11 32 17 NNW 1005,7 5 0 1,8
10.12.2017 15:00:00 4,7 2,4 4,0 12,0 14,4 20 11 29 16 NNW 1006,1 9 0 1,3
10.12.2017 14:00:00 4,5 1,9 4,2 12,0 14,5 18 10 24 13 NNW 1007,2 9 0 0,8
10.12.2017 13:00:00 4,2 1,6 3,8 12,0 14,7 13 7 22 12 N 1008,7 8 0 1,8
10.12.2017 12:00:00 3,9 1,1 3,3 12,0 14,5 16 8 22 12 NNW 1009,7 9 0 1,4
10.12.2017 11:00:00 3,2 0,4 2,2 12,0 14,6 12 6 24 13 N 1011,2 9 0 1,0
10.12.2017 10:00:00 2,7 -1,5 1,5 12,0 14,3 11 6 18 10 N 1012,5 5 0 0,6
10.12.2017 09:00:00 2,6 -4,0 1,5 12,1 14,5 8 4 20 11 NNW 1013,6 8 0 0,0
10.12.2017 08:00:00 4,3 -10,6 3,8 12,1 14,5 15 8 32 17 NW 1014,0 10 0 0,0
10.12.2017 07:00:00 3,9 -10,9 3,5 12,1 14,5 21 11 31 17 NW 1013,6 30 0 0,0
10.12.2017 06:00:00 3,5 -10,9 2,7 12,1 14,3 22 12 29 15 NW 1013,8 40 0 0,0
10.12.2017 05:00:00 3,1 -11,3 2,4 12,1 14,5 16 8 28 15 NNW 1014,5 40 0 0,0
10.12.2017 04:00:00 3,5 -11,3 2,8 12,1 14,5 12 6 21 11 NNW 1015,2 40 0 0,0
10.12.2017 03:00:00 3,8 -11,4 3,0 12,1 14,6 13 7 23 12 N 1015,4 40 0 0,0
10.12.2017 02:00:00 4,1 -11,6 3,1 12,1 14,6 18 10 27 14 NNW 1016,0 40 0 0,0
10.12.2017 01:00:00 4,5 -11,2 3,7 12,1 14,5 14 8 22 12 NNW 1016,6 40 0 0,0
10.12.2017 00:00:00 4,7 -11,4 3,9 12,2 14,6 14 8 24 13 NNW 1017,2 40 0 0,0
09.12.2017 23:00:00 5,9 -12,2 5,1 12,2 14,7 17 9 26 14 NNW 1017,3 40 0 0,0
09.12.2017 22:00:00 6,3 -11,4 4,0 12,2 14,6 15 8 24 13 N 1017,2 40 0 0,0
09.12.2017 21:00:00 5,7 -10,6 4,8 12,2 14,7 13 7 21 11 NNW 1017,5 40 0 0,0
09.12.2017 20:00:00 5,8 -10,5 4,9 12,2 14,6 15 8 27 14 NNW 1017,1 40 0 0,0
09.12.2017 19:00:00 6,5 -10,3 5,7 12,2 14,5 13 7 21 11 NNW 1016,8 30 0 0,0
09.12.2017 18:00:00 7,6 -6,5 5,9 12,2 14,7 11 6 20 11 - 1016,1 10 0 0,0
09.12.2017 17:00:00 10,5 -3,6 9,2 12,2 14,7 16 8 26 14 Z 1015,6 30 31 0,0
09.12.2017 16:00:00 11,1 -5,0 11,3 12,2 14,6 19 10 31 17 Z 1015,0 30 60 0,0
09.12.2017 15:00:00 11,3 -2,9 14,3 12,2 14,6 22 12 30 16 Z 1014,5 30 60 0,0
09.12.2017 14:00:00 11,5 -8,4 14,3 12,2 14,6 19 10 30 16 ZZW 1014,4 30 60 0,0
09.12.2017 13:00:00 11,2 -6,7 11,8 12,2 14,7 23 12 33 18 ZZW 1014,5 30 60 0,0
09.12.2017 12:00:00 10,7 -5,4 13,4 12,2 14,7 22 12 35 19 ZZW 1014,8 30 60 0,0
09.12.2017 11:00:00 10,3 -7,4 10,0 12,2 14,6 16 8 24 13 Z 1014,8 30 60 0,0
09.12.2017 10:00:00 7,6 -12,8 6,0 12,2 14,6 11 6 43 23 NNW 1014,1 30 2 0,0
09.12.2017 09:00:00 8,1 -13,6 6,4 12,2 14,6 27 15 44 24 N 1012,9 30 0 0,0
09.12.2017 08:00:00 8,1 -13,0 7,3 12,2 14,6 26 14 71 38 NNW 1011,4 60 0 0,0
09.12.2017 07:00:00 8,9 -13,5 6,9 12,2 15,0 37 20 57 31 N 1010,5 30 0 0,0
09.12.2017 06:00:00 8,1 -11,3 6,1 12,2 14,7 23 12 47 25 NNW 1010,2 30 0 0,0
09.12.2017 05:00:00 7,8 -12,1 5,0 12,2 14,5 27 15 38 21 NNW 1010,0 30 0 0,0
09.12.2017 04:00:00 7,7 -11,6 5,9 12,2 14,5 21 12 37 20 NW 1010,0 30 0 0,0
09.12.2017 03:00:00 9,4 -8,7 6,3 12,2 14,7 29 16 51 28 NW 1009,8 30 0 0,0
09.12.2017 02:00:00 8,1 -5,7 4,9 12,2 14,6 23 13 48 26 NW 1009,9 30 0 0,0
09.12.2017 01:00:00 8,5 -8,6 3,6 12,2 14,7 16 9 23 12 NW 1009,9 30 0 0,0
09.12.2017 00:00:00 10,4 -6,5 7,6 12,2 14,8 11 6 30 16 W 1009,9 30 0 0,0
08.12.2017 23:00:00 11,1 -5,9 8,6 12,2 14,7 15 8 33 18 W 1009,5 30 0 0,0
08.12.2017 22:00:00 10,8 -3,3 8,0 12,2 14,9 19 10 35 19 WZW 1008,8 30 0 0,0
08.12.2017 21:00:00 10,1 -3,3 6,5 12,2 14,7 18 10 29 16 W 1008,1 30 0 0,0
08.12.2017 20:00:00 11,3 0,7 10,2 12,2 14,7 28 15 51 27 WZW 1008,4 30 0 0,0
08.12.2017 19:00:00 12,0 1,6 10,9 12,2 14,8 22 12 49 26 W 1008,4 10 0 0,0
08.12.2017 18:00:00 12,0 3,5 11,2 12,2 14,6 36 20 63 34 WZW 1008,8 30 0 0,0
08.12.2017 17:00:00 12,0 6,1 11,5 12,2 14,6 49 26 69 37 ZW 1009,5 30 41 0,0
08.12.2017 16:00:00 12,4 6,9 12,7 12,2 14,7 45 25 64 34 ZW 1010,5 30 60 0,0
08.12.2017 15:00:00 13,8 6,4 13,6 12,2 14,7 42 23 55 30 WZW 1011,4 30 60 0,0
08.12.2017 14:00:00 13,4 7,6 13,4 12,1 14,5 27 15 46 25 ZW 1013,0 30 0 0,0
08.12.2017 13:00:00 13,5 5,6 13,7 12,2 14,9 32 17 48 26 WZW 1014,4 30 0 0,0
08.12.2017 12:00:00 13,3 5,7 12,3 12,2 14,8 36 20 50 27 ZW 1016,1 30 0 0,0
08.12.2017 11:00:00 13,3 5,2 12,4 12,2 14,8 30 16 41 22 WZW 1017,9 30 0 0,0
08.12.2017 10:00:00 12,7 4,9 10,0 12,2 14,8 11 6 19 10 W 1018,7 30 0 0,0
08.12.2017 09:00:00 9,6 1,2 8,6 12,2 14,7 13 7 25 14 NNW 1019,4 30 0 0,0
08.12.2017 08:00:00 8,8 0,2 8,2 12,2 14,7 15 8 20 11 NNW 1019,9 30 0 0,0
08.12.2017 07:00:00 8,5 0,0 8,1 12,1 14,4 15 8 24 13 NNW 1020,8 30 0 0,0
08.12.2017 06:00:00 8,4 -0,1 7,5 12,1 14,8 21 11 27 15 NNW 1021,0 30 0 0,0
08.12.2017 05:00:00 8,4 0,1 7,8 12,2 15,0 15 8 32 17 NW 1021,6 30 0 0,0
08.12.2017 04:00:00 8,3 -0,2 7,7 12,1 14,8 20 11 36 19 NNW 1022,6 30 0 0,0
08.12.2017 03:00:00 8,6 0,1 7,7 12,1 14,9 19 10 29 16 NW 1023,5 30 0 0,0
08.12.2017 02:00:00 8,5 0,0 7,7 12,1 14,9 21 11 30 16 NW 1024,1 30 0 0,0
08.12.2017 01:00:00 9,0 -0,1 8,0 12,1 14,8 21 12 32 17 NW 1024,8 30 0 0,0
08.12.2017 00:00:00 9,8 0,9 8,5 12,1 14,8 20 11 34 18 NNW 1025,5 30 0 0,0
07.12.2017 23:00:00 9,7 0,6 7,8 12,1 15,0 18 10 27 14 NNW 1026,0 30 0 0,0
07.12.2017 22:00:00 8,5 0,7 7,1 12,1 14,7 17 9 24 13 NW 1026,1 30 0 0,0
07.12.2017 21:00:00 8,0 0,9 7,2 12,1 14,8 16 9 27 15 NW 1027,1 30 0 0,0
07.12.2017 20:00:00 8,1 1,0 7,5 12,2 14,9 15 8 22 12 NW 1027,4 35 0 0,0
07.12.2017 19:00:00 11,4 6,1 9,6 12,1 14,8 13 7 22 12 NW 1027,4 35 0 0,0
07.12.2017 18:00:00 13,2 6,8 12,1 12,2 15,0 18 10 38 21 WZW 1027,5 35 0 0,0
07.12.2017 17:00:00 14,2 6,3 13,3 12,1 15,0 27 15 36 19 WZW 1027,6 35 23 0,0
07.12.2017 16:00:00 14,4 5,2 14,0 12,2 14,8 24 13 40 21 WZW 1027,8 35 18 0,0
07.12.2017 15:00:00 15,2 4,8 14,5 12,2 14,7 32 17 41 22 WZW 1027,8 35 37 0,0
07.12.2017 14:00:00 15,0 4,7 15,0 12,2 14,9 28 15 42 23 W 1028,3 10 54 0,0
07.12.2017 13:00:00 14,5 5,6 13,3 12,2 14,8 3 2 16 9 W 1029,4 35 60 0,0
07.12.2017 12:00:00 11,6 -0,3 13,8 12,2 14,9 12 7 23 13 NW 1030,3 35 60 0,0
07.12.2017 11:00:00 9,6 -0,1 8,1 12,2 14,9 15 8 29 16 NW 1031,2 35 15 0,0
07.12.2017 10:00:00 7,3 -0,9 6,9 12,2 14,8 20 11 31 17 NW 1031,4 35 41 0,0
07.12.2017 09:00:00 5,9 -1,1 4,5 12,2 14,7 17 9 32 18 NW 1031,5 30 52 0,0
07.12.2017 08:00:00 4,9 -0,9 4,3 12,2 14,9 25 13 38 21 NNW 1031,1 30 0 0,0
07.12.2017 07:00:00 5,1 -0,5 4,4 12,2 14,8 22 12 34 18 NW 1031,1 30 0 0,0
07.12.2017 06:00:00 5,2 -0,4 4,6 12,2 15,0 22 12 31 17 NW 1031,1 30 0 0,0
07.12.2017 05:00:00 5,4 0,0 4,8 12,2 15,0 23 13 31 17 NNW 1031,3 30 0 0,0
07.12.2017 04:00:00 5,9 0,2 5,3 12,2 14,9 23 13 33 18 NW 1031,7 30 0 0,0
07.12.2017 03:00:00 6,0 0,5 5,5 12,2 15,0 23 12 31 17 NNW 1032,1 30 0 0,0
07.12.2017 02:00:00 6,4 0,9 5,5 12,2 15,1 23 12 30 16 NW 1032,4 30 0 0,0
07.12.2017 01:00:00 6,7 1,2 6,1 12,2 14,9 23 12 31 17 NNW 1032,6 30 0 0,0
07.12.2017 00:00:00 6,7 1,4 6,2 12,2 15,1 24 13 30 16 NNW 1033,0 30 0 0,0

tt = temperatuur
td = dauwpunt
tt 5cm = temperatuur 5cm
tt -20cm = temperatuur -20cm
tt -100cm = temperatuur -100cm
ff = windsnelheid
fx = windstoten
dd = windrichting
ppp = luchtdruk
vv = zicht
sd = Zonneschijnduur
rr = neerslag

Weerstations in de omgeving